Location: Dalton
(34.7700°N, 84.9700°W)
Time: 16:10:03
(UTC-04:00)

Envisat - Pass Details

Date: 15 October 2017
Orbit: 764 x 766 km, 98.2° (Epoch: 19 October)

Event Time Altitude Azimuth Distance (km) Brightness Sun altitude
Exits shadow 21:23:15 24° 0° (N) 1,535 4.6 -29.1°
Drops below altitude 10° 21:25:17 10° 354° (N) 2,306 5.6 -29.6°
Sets 21:27:36 0° 352° (N) 3,235 6.5 -30.0°
